| time (UTC) | temp F | wind direction | speed knots | gust knots | rain 1hr in | rain 24hr in | rain mn in | humidity % | barometer mb |
| 20260510043545 | 65 | 0.0 | 0.0 | 0.00 | 0.00 | 0.00 | 48 | 1015.2 | |
| 20260510042545 | 65 | 0.0 | 0.0 | 0.00 | 0.00 | 0.00 | 47 | 1015.1 | |
| 20260510041605 | 66 | 0.0 | 0.0 | 0.00 | 0.00 | 0.00 | 45 | 1015.0 | |
| 20260510040545 | 67 | 87 | 0.9 | 3.5 | 0.00 | 0.00 | 0.00 | 43 | 1014.9 |
| 20260510035605 | 69 | 92 | 0.9 | 3.5 | 0.00 | 0.00 | 0.00 | 41 | 1014.9 |
| 20260510034545 | 70 | 61 | 0.0 | 3.5 | 0.00 | 0.00 | 0.00 | 40 | 1014.9 |
| 20260510033546 | 70 | 75 | 0.9 | 2.6 | 0.00 | 0.00 | 0.00 | 38 | 1015.0 |
| 20260510032606 | 70 | 61 | 1.7 | 6.1 | 0.00 | 0.00 | 0.00 | 38 | 1014.9 |
| 20260510031546 | 70 | 55 | 2.6 | 5.2 | 0.00 | 0.00 | 0.00 | 40 | 1014.9 |
| 20260510030546 | 71 | 63 | 2.6 | 7.0 | 0.00 | 0.00 | 0.00 | 39 | 1014.8 |
| 20260510025547 | 71 | 66 | 2.6 | 6.1 | 0.00 | 0.00 | 0.00 | 39 | 1014.8 |
| 20260510024546 | 72 | 92 | 1.7 | 4.3 | 0.00 | 0.00 | 0.00 | 41 | 1014.9 |
| 20260510023547 | 72 | 69 | 0.9 | 3.5 | 0.00 | 0.00 | 0.00 | 42 | 1014.8 |
| 20260510022546 | 73 | 56 | 1.7 | 6.1 | 0.00 | 0.00 | 0.00 | 42 | 1014.7 |
| 20260510021547 | 74 | 55 | 4.3 | 9.6 | 0.00 | 0.00 | 0.00 | 40 | 1014.6 |
| 20260510020547 | 75 | 39 | 2.6 | 7.8 | 0.00 | 0.00 | 0.00 | 41 | 1014.7 |
| 20260510015547 | 76 | 55 | 1.7 | 7.0 | 0.00 | 0.00 | 0.00 | 38 | 1014.8 |
| 20260510014547 | 76 | 58 | 3.5 | 8.7 | 0.00 | 0.00 | 0.00 | 38 | 1014.8 |
| 20260510013547 | 77 | 59 | 3.5 | 8.7 | 0.00 | 0.00 | 0.00 | 38 | 1014.9 |
| 20260510012547 | 77 | 38 | 2.6 | 6.1 | 0.00 | 0.00 | 0.00 | 38 | 1014.9 |
| 20260510011547 | 78 | 40 | 2.6 | 5.2 | 0.00 | 0.00 | 0.00 | 30 | 1014.9 |
| 20260510010547 | 78 | 41 | 0.9 | 3.5 | 0.00 | 0.00 | 0.00 | 27 | 1015.0 |
| 20260510005547 | 78 | 26 | 0.0 | 1.7 | 0.00 | 0.00 | 0.00 | 26 | 1015.0 |
| 20260510004548 | 79 | 31 | 0.9 | 3.5 | 0.00 | 0.00 | 0.00 | 26 | 1015.1 |
| 20260510003548 | 78 | 41 | 1.7 | 4.3 | 0.00 | 0.00 | 0.00 | 26 | 1015.2 |
| 20260510002548 | 78 | 40 | 1.7 | 5.2 | 0.00 | 0.00 | 0.00 | 27 | 1015.3 |
| 20260510001548 | 78 | 41 | 1.7 | 6.1 | 0.00 | 0.00 | 0.00 | 27 | 1015.3 |
| 20260510000548 | 79 | 42 | 0.9 | 3.5 | 0.00 | 0.00 | 0.00 | 26 | 1015.5 |
| 20260509235548 | 79 | 47 | 1.7 | 5.2 | 0.00 | 0.00 | 0.00 | 27 | 1015.6 |
| 20260509234548 | 78 | 43 | 1.7 | 6.1 | 0.00 | 0.00 | 0.00 | 28 | 1015.6 |
| 20260509233548 | 78 | 29 | 2.6 | 5.2 | 0.00 | 0.00 | 0.00 | 29 | 1015.7 |
| 20260509232549 | 78 | 32 | 0.9 | 2.6 | 0.00 | 0.00 | 0.00 | 30 | 1015.8 |
| 20260509231549 | 78 | 35 | 1.7 | 6.1 | 0.00 | 0.00 | 0.00 | 30 | 1015.9 |
| 20260509230549 | 78 | 32 | 1.7 | 6.1 | 0.00 | 0.00 | 0.00 | 31 | 1016.0 |
| 20260509225609 | 78 | 21 | 0.9 | 6.1 | 0.00 | 0.00 | 0.00 | 32 | 1016.1 |
| 20260509224549 | 77 | 353 | 0.9 | 4.3 | 0.00 | 0.00 | 0.00 | 33 | 1016.3 |
| 20260509223609 | 77 | 320 | 0.0 | 2.6 | 0.00 | 0.00 | 0.00 | 33 | 1016.5 |
| 20260509222550 | 77 | 343 | 0.9 | 3.5 | 0.00 | 0.00 | 0.00 | 35 | 1016.6 |
| 20260509221550 | 77 | 320 | 1.7 | 5.2 | 0.00 | 0.00 | 0.00 | 35 | 1016.8 |
| 20260509220550 | 77 | 320 | 1.7 | 4.3 | 0.00 | 0.00 | 0.00 | 35 | 1017.0 |
| 20260509215550 | 77 | 338 | 0.9 | 2.6 | 0.00 | 0.00 | 0.00 | 35 | 1017.1 |
| 20260509214550 | 77 | 40 | 1.7 | 6.1 | 0.00 | 0.00 | 0.00 | 36 | 1017.2 |
| 20260509213550 | 77 | 44 | 1.7 | 7.8 | 0.00 | 0.00 | 0.00 | 37 | 1017.3 |
| 20260509212610 | 77 | 34 | 2.6 | 7.0 | 0.00 | 0.00 | 0.00 | 37 | 1017.4 |
| 20260509211610 | 77 | 173 | 2.6 | 6.1 | 0.00 | 0.00 | 0.00 | 38 | 1017.4 |
| 20260509210610 | 76 | 115 | 0.9 | 7.8 | 0.00 | 0.00 | 0.00 | 38 | 1017.5 |
| 20260509205550 | 76 | 129 | 2.6 | 8.7 | 0.00 | 0.00 | 0.00 | 39 | 1017.6 |
| 20260509204551 | 75 | 320 | 2.6 | 6.1 | 0.00 | 0.00 | 0.00 | 38 | 1017.7 |
| 20260509203611 | 74 | 38 | 1.7 | 7.0 | 0.00 | 0.00 | 0.00 | 39 | 1017.8 |
| 20260509202611 | 74 | 44 | 2.6 | 7.8 | 0.00 | 0.00 | 0.00 | 39 | 1017.9 |
| 20260509201551 | 74 | 55 | 2.6 | 9.6 | 0.00 | 0.00 | 0.00 | 39 | 1018.0 |
| 20260509200551 | 74 | 37 | 2.6 | 7.8 | 0.00 | 0.00 | 0.00 | 39 | 1018.1 |
| 20260509195551 | 74 | 55 | 0.0 | 2.6 | 0.00 | 0.00 | 0.00 | 40 | 1018.3 |
| 20260509194551 | 73 | 58 | 1.7 | 5.2 | 0.00 | 0.00 | 0.00 | 41 | 1018.3 |
| 20260509193552 | 72 | 21 | 1.7 | 6.1 | 0.00 | 0.00 | 0.00 | 42 | 1018.5 |
| 20260509192611 | 72 | 52 | 0.9 | 6.1 | 0.00 | 0.00 | 0.00 | 42 | 1018.7 |
| 20260509191552 | 71 | 29 | 1.7 | 8.7 | 0.00 | 0.00 | 0.00 | 44 | 1018.8 |
| 20260509190552 | 71 | 4 | 1.7 | 6.1 | 0.00 | 0.00 | 0.00 | 44 | 1018.9 |
| 20260509185553 | 70 | 39 | 1.7 | 7.8 | 0.00 | 0.00 | 0.00 | 45 | 1018.9 |
| 20260509184553 | 70 | 2 | 1.7 | 6.1 | 0.00 | 0.00 | 0.00 | 45 | 1019.0 |
| 20260509183553 | 70 | 34 | 0.9 | 5.2 | 0.00 | 0.00 | 0.00 | 47 | 1019.0 |
| 20260509182553 | 70 | 1 | 0.0 | 2.6 | 0.00 | 0.00 | 0.00 | 48 | 1019.2 |
| 20260509181553 | 70 | 327 | 0.9 | 2.6 | 0.00 | 0.00 | 0.00 | 47 | 1019.4 |
| 20260509180554 | 69 | 292 | 0.9 | 5.2 | 0.00 | 0.00 | 0.00 | 49 | 1019.5 |
| 20260509175556 | 69 | 43 | 1.7 | 7.8 | 0.00 | 0.00 | 0.00 | 49 | 1019.5 |
| 20260509174554 | 68 | 294 | 1.7 | 5.2 | 0.00 | 0.00 | 0.00 | 47 | 1019.6 |
| 20260509173554 | 67 | 280 | 3.5 | 6.1 | 0.00 | 0.00 | 0.00 | 47 | 1019.7 |
| 20260509172554 | 66 | 257 | 2.6 | 4.3 | 0.00 | 0.00 | 0.00 | 48 | 1019.8 |
| 20260509171554 | 66 | 298 | 1.7 | 5.2 | 0.00 | 0.00 | 0.00 | 49 | 1019.9 |
| 20260509170554 | 65 | 290 | 2.6 | 7.0 | 0.00 | 0.00 | 0.00 | 49 | 1020.1 |
| 20260509165554 | 64 | 289 | 3.5 | 7.8 | 0.00 | 0.00 | 0.00 | 51 | 1020.1 |
| 20260509164555 | 64 | 294 | 4.3 | 7.8 | 0.00 | 0.00 | 0.00 | 50 | 1020.1 |
| 20260509163555 | 64 | 310 | 0.0 | 3.5 | 0.00 | 0.00 | 0.00 | 51 | 1020.1 |
| 20260509162555 | 63 | 256 | 2.6 | 7.8 | 0.00 | 0.00 | 0.00 | 51 | 1019.9 |
| 20260509161605 | 62 | 308 | 0.9 | 5.2 | 0.00 | 0.00 | 0.00 | 53 | 1019.9 |
| 20260509160555 | 61 | 302 | 3.5 | 7.8 | 0.00 | 0.00 | 0.00 | 54 | 1020.0 |
| 20260509155555 | 61 | 298 | 2.6 | 6.1 | 0.00 | 0.00 | 0.00 | 55 | 1020.1 |
| 20260509154616 | 61 | 300 | 3.5 | 6.1 | 0.00 | 0.00 | 0.00 | 56 | 1020.3 |
| 20260509153555 | 61 | 301 | 0.9 | 5.2 | 0.00 | 0.00 | 0.00 | 56 | 1020.3 |
| 20260509152555 | 60 | 301 | 0.9 | 7.0 | 0.00 | 0.00 | 0.00 | 57 | 1020.3 |
| 20260509151556 | 59 | 270 | 4.3 | 7.8 | 0.00 | 0.00 | 0.00 | 58 | 1020.3 |
| 20260509150555 | 59 | 247 | 1.7 | 4.3 | 0.00 | 0.00 | 0.00 | 60 | 1020.4 |
| 20260509145556 | 58 | 246 | 1.7 | 3.5 | 0.00 | 0.00 | 0.00 | 62 | 1020.5 |
| 20260509144555 | 56 | 215 | 0.0 | 1.7 | 0.00 | 0.00 | 0.00 | 66 | 1020.5 |
| 20260509143616 | 53 | 210 | 0.0 | 2.6 | 0.00 | 0.00 | 0.00 | 70 | 1020.4 |
| 20260509142556 | 52 | 263 | 4.3 | 5.2 | 0.00 | 0.00 | 0.00 | 71 | 1020.2 |
| 20260509141556 | 52 | 236 | 4.3 | 6.1 | 0.00 | 0.00 | 0.00 | 72 | 1020.1 |
| 20260509140556 | 52 | 152 | 0.9 | 2.6 | 0.00 | 0.00 | 0.00 | 75 | 1020.1 |
| 20260509135556 | 50 | 0.0 | 0.0 | 0.00 | 0.00 | 0.00 | 77 | 1020.1 | |
| 20260509134556 | 49 | 108 | 0.0 | 2.6 | 0.00 | 0.00 | 0.00 | 79 | 1020.0 |
| 20260509133556 | 48 | 141 | 0.0 | 1.7 | 0.00 | 0.00 | 0.00 | 78 | 1019.8 |
| 20260509132617 | 47 | 53 | 1.7 | 5.2 | 0.00 | 0.00 | 0.00 | 78 | 1019.6 |
| 20260509131557 | 46 | 0.0 | 0.0 | 0.00 | 0.00 | 0.00 | 78 | 1019.4 | |
| 20260509130556 | 45 | 169 | 0.0 | 0.9 | 0.00 | 0.00 | 0.00 | 80 | 1019.4 |
| 20260509125557 | 45 | 221 | 0.9 | 2.6 | 0.00 | 0.00 | 0.00 | 78 | 1019.4 |
| 20260509124617 | 46 | 0.0 | 0.0 | 0.00 | 0.00 | 0.00 | 77 | 1019.4 | |
| 20260509123558 | 46 | 71 | 3.5 | 5.2 | 0.00 | 0.00 | 0.00 | 76 | 1019.4 |
| 20260509122557 | 47 | 180 | 0.0 | 2.6 | 0.00 | 0.00 | 0.00 | 73 | 1019.4 |
| 20260509121558 | 47 | 180 | 1.7 | 3.5 | 0.00 | 0.00 | 0.00 | 74 | 1019.4 |
| 20260509120558 | 47 | 115 | 0.9 | 3.5 | 0.00 | 0.00 | 0.00 | 74 | 1019.4 |
| 20260509115558 | 48 | 111 | 2.6 | 4.3 | 0.00 | 0.00 | 0.00 | 72 | 1019.4 |
| 20260509114558 | 49 | 177 | 0.0 | 1.7 | 0.00 | 0.00 | 0.00 | 70 | 1019.3 |
| 20260509113618 | 50 | 116 | 0.0 | 1.7 | 0.00 | 0.00 | 0.00 | 69 | 1019.3 |
| 20260509112558 | 51 | 118 | 1.7 | 3.5 | 0.00 | 0.00 | 0.00 | 69 | 1019.2 |
| 20260509111559 | 51 | 66 | 3.5 | 6.1 | 0.00 | 0.00 | 0.00 | 69 | 1019.3 |
| 20260509110558 | 53 | 86 | 2.6 | 4.3 | 0.00 | 0.00 | 0.00 | 68 | 1019.2 |
| 20260509105618 | 57 | 56 | 6.1 | 9.6 | 0.00 | 0.00 | 0.00 | 59 | 1019.0 |
| 20260509104558 | 56 | 206 | 3.5 | 7.0 | 0.00 | 0.00 | 0.00 | 57 | 1018.9 |
| 20260509103618 | 56 | 231 | 1.7 | 4.3 | 0.00 | 0.00 | 0.00 | 57 | 1018.9 |
| 20260509102559 | 57 | 184 | 1.7 | 3.5 | 0.00 | 0.00 | 0.00 | 56 | 1018.9 |
| 20260509101619 | 57 | 209 | 2.6 | 5.2 | 0.00 | 0.00 | 0.00 | 55 | 1018.9 |
| 20260509100559 | 57 | 201 | 2.6 | 5.2 | 0.00 | 0.00 | 0.00 | 55 | 1018.9 |
| 20260509095559 | 57 | 213 | 3.5 | 7.0 | 0.00 | 0.00 | 0.00 | 55 | 1018.8 |
| 20260509094559 | 57 | 214 | 4.3 | 8.7 | 0.00 | 0.00 | 0.00 | 55 | 1018.7 |
| 20260509093559 | 57 | 194 | 3.5 | 7.0 | 0.00 | 0.00 | 0.00 | 56 | 1018.8 |
| 20260509092600 | 57 | 206 | 3.5 | 5.2 | 0.00 | 0.00 | 0.00 | 55 | 1018.8 |
| 20260509091600 | 57 | 205 | 2.6 | 6.1 | 0.00 | 0.00 | 0.00 | 55 | 1018.8 |
| 20260509090620 | 58 | 176 | 2.6 | 5.2 | 0.00 | 0.00 | 0.00 | 55 | 1018.7 |
| 20260509085601 | 58 | 216 | 2.6 | 6.1 | 0.00 | 0.00 | 0.00 | 54 | 1018.7 |
| 20260509084600 | 59 | 236 | 2.6 | 6.1 | 0.00 | 0.00 | 0.00 | 53 | 1018.7 |
| 20260509083600 | 59 | 219 | 5.2 | 9.6 | 0.00 | 0.00 | 0.00 | 53 | 1018.6 |
| 20260509082600 | 59 | 233 | 5.2 | 10.4 | 0.00 | 0.00 | 0.00 | 53 | 1018.6 |
| 20260509081600 | 59 | 233 | 6.1 | 12.2 | 0.00 | 0.00 | 0.00 | 52 | 1018.6 |
| 20260509080601 | 59 | 244 | 5.2 | 8.7 | 0.00 | 0.00 | 0.00 | 52 | 1018.6 |
| 20260509075600 | 59 | 238 | 6.1 | 10.4 | 0.00 | 0.00 | 0.00 | 53 | 1018.5 |
| 20260509074601 | 59 | 237 | 5.2 | 10.4 | 0.00 | 0.00 | 0.00 | 52 | 1018.4 |
| 20260509073600 | 60 | 230 | 5.2 | 9.6 | 0.00 | 0.00 | 0.00 | 51 | 1018.3 |
| 20260509072601 | 60 | 237 | 4.3 | 7.8 | 0.00 | 0.00 | 0.00 | 50 | 1018.3 |
| 20260509071601 | 60 | 227 | 4.3 | 7.8 | 0.00 | 0.00 | 0.00 | 50 | 1018.2 |
| 20260509070601 | 60 | 231 | 4.3 | 7.8 | 0.00 | 0.00 | 0.00 | 49 | 1018.0 |
| 20260509065601 | 60 | 236 | 4.3 | 7.8 | 0.00 | 0.00 | 0.00 | 49 | 1017.9 |
| 20260509064601 | 59 | 229 | 4.3 | 9.6 | 0.00 | 0.00 | 0.00 | 51 | 1017.9 |
| 20260509063601 | 58 | 230 | 4.3 | 8.7 | 0.00 | 0.00 | 0.00 | 52 | 1017.7 |
| 20260509062602 | 58 | 241 | 2.6 | 4.3 | 0.00 | 0.00 | 0.00 | 54 | 1017.6 |
| 20260509061602 | 59 | 251 | 3.5 | 5.2 | 0.00 | 0.00 | 0.00 | 52 | 1017.7 |
| 20260509060604 | 61 | 273 | 4.3 | 8.7 | 0.00 | 0.00 | 0.00 | 50 | 1017.6 |
| 20260509055601 | 61 | 245 | 4.3 | 7.8 | 0.00 | 0.00 | 0.00 | 49 | 1017.5 |
| 20260509054602 | 62 | 240 | 5.2 | 8.7 | 0.00 | 0.00 | 0.00 | 49 | 1017.3 |
| 20260509053602 | 62 | 255 | 8.7 | 12.2 | 0.00 | 0.00 | 0.00 | 47 | 1017.3 |
| 20260509052622 | 62 | 237 | 8.7 | 11.3 | 0.00 | 0.00 | 0.00 | 47 | 1017.3 |
| 20260509051602 | 62 | 223 | 6.1 | 11.3 | 0.00 | 0.00 | 0.00 | 47 | 1017.2 |
| 20260509050602 | 62 | 232 | 5.2 | 10.4 | 0.00 | 0.00 | 0.00 | 47 | 1017.0 |
| 20260509045603 | 62 | 244 | 5.2 | 7.8 | 0.00 | 0.00 | 0.00 | 48 | 1016.9 |
| 20260509044603 | 62 | 238 | 4.3 | 6.1 | 0.00 | 0.00 | 0.00 | 46 | 1017.1 |